Location: Luxembourg
(49.6117°N, 6.1300°E)
Time: 14:17:41
(UTC+01:00)

ISS - Pass Details

Date: 30 January 2019
Orbit: 403 x 411 km, 51.6° (Epoch: 20 February)

Event Time Altitude Azimuth Distance (km) Brightness Sun altitude
Rises 20:36:21 0° 285° (WNW) 2,341 1.2 -30.6°
Reaches altitude 10° 20:38:26 10° 287° (WNW) 1,480 -0.1 -31.0°
Enters shadow 20:38:44 12° 288° (WNW) 1,357 -0.4 -31.0°
